Time,TemperatureF,DewpointF,PressureIn,WindDirection,WindDirectionDegrees,WindSpeedMPH,WindSpeedGustMPH,Humidity,HourlyPrecipIn,Conditions,Clouds,dailyrainin,SoftwareType,DateUTC
2013-06-13 00:01:00,67.0,64.0,-100.00,ESE,120,4.0,6.0,92,15.87,,,-99.99,,2013-06-13 04:01:00,
2013-06-13 00:12:00,67.0,65.0,-100.00,ENE,75,6.0,9.0,93,26.61,,,-99.99,,2013-06-13 04:12:00,
2013-06-13 00:22:00,67.0,65.0,-100.00,North,0,2.0,8.0,93,0.00,,,-99.99,,2013-06-13 04:22:00,
2013-06-13 00:32:00,67.0,65.0,-100.00,West,270,1.0,6.0,93,0.00,,,-99.99,,2013-06-13 04:32:00,
2013-06-13 00:43:00,67.0,65.0,-100.00,East,95,1.0,4.0,93,0.00,,,-99.99,,2013-06-13 04:43:00,
2013-06-13 00:53:00,67.0,65.0,-100.00,East,95,1.0,4.0,93,0.00,,,-99.99,,2013-06-13 04:53:00,
2013-06-13 01:02:00,67.0,65.0,-100.00,ESE,120,2.0,6.0,93,0.00,,,-99.99,,2013-06-13 05:02:00,
2013-06-13 01:12:00,67.0,65.0,-100.00,East,100,2.0,4.0,93,0.55,,,-99.99,,2013-06-13 05:12:00,
2013-06-13 01:24:00,67.0,65.0,-100.00,ESE,110,2.0,4.0,93,0.55,,,-99.99,,2013-06-13 05:24:00,
2013-06-13 01:33:00,67.0,65.0,-100.00,ESE,110,2.0,4.0,93,0.55,,,-99.99,,2013-06-13 05:33:00,
2013-06-13 01:43:00,67.0,65.0,-100.00,SE,140,1.0,5.0,93,6.22,,,-99.99,,2013-06-13 05:43:00,
2013-06-13 01:53:00,67.0,65.0,-100.00,SSW,195,2.0,5.0,93,7.36,,,-99.99,,2013-06-13 05:53:00,
2013-06-13 02:02:00,66.0,65.0,-100.00,ESE,115,5.0,9.0,93,0.00,,,-99.99,,2013-06-13 06:02:00,
2013-06-13 02:11:00,66.0,65.0,-100.00,SE,125,4.0,7.0,93,0.00,,,-99.99,,2013-06-13 06:11:00,
2013-06-13 02:22:00,67.0,65.0,-100.00,SE,125,4.0,9.0,93,0.55,,,-99.99,,2013-06-13 06:22:00,
2013-06-13 02:33:00,67.0,65.0,-100.00,SE,140,3.0,12.0,93,0.00,,,-99.99,,2013-06-13 06:33:00,
2013-06-13 02:44:00,67.0,65.0,-100.00,ESE,120,5.0,10.0,92,0.00,,,-99.99,,2013-06-13 06:44:00,
2013-06-13 02:52:00,67.0,65.0,-100.00,ESE,120,5.0,10.0,92,0.00,,,-99.99,,2013-06-13 06:52:00,
2013-06-13 03:01:00,67.0,65.0,-100.00,ESE,115,4.0,10.0,92,0.55,,,-99.99,,2013-06-13 07:01:00,
2013-06-13 03:12:00,67.0,65.0,-100.00,West,260,3.0,8.0,92,1.10,,,-99.99,,2013-06-13 07:12:00,
2013-06-13 03:22:00,67.0,65.0,-100.00,West,260,4.0,14.0,93,13.03,,,-99.99,,2013-06-13 07:22:00,
2013-06-13 03:33:00,67.0,65.0,-100.00,West,260,4.0,14.0,93,13.03,,,-99.99,,2013-06-13 07:33:00,
2013-06-13 03:42:00,67.0,65.0,-100.00,SE,125,4.0,10.0,92,1.10,,,-99.99,,2013-06-13 07:42:00,
2013-06-13 03:52:00,67.0,65.0,-100.00,SE,130,4.0,10.0,93,3.39,,,-99.99,,2013-06-13 07:52:00,
2013-06-13 04:01:00,67.0,65.0,-100.00,ESE,115,6.0,11.0,93,0.00,,,-99.99,,2013-06-13 08:01:00,
2013-06-13 04:11:00,67.0,65.0,-100.00,SE,125,4.0,11.0,93,0.55,,,-99.99,,2013-06-13 08:11:00,
2013-06-13 04:22:00,67.0,65.0,-100.00,SSE,165,3.0,9.0,93,0.00,,,-99.99,,2013-06-13 08:22:00,
2013-06-13 04:32:00,67.0,65.0,-100.00,South,170,2.0,12.0,92,0.00,,,-99.99,,2013-06-13 08:32:00,
2013-06-13 04:43:00,67.0,64.0,-100.00,SSE,155,6.0,12.0,92,0.00,,,-99.99,,2013-06-13 08:43:00,
2013-06-13 04:52:00,66.0,64.0,-100.00,SE,145,4.0,13.0,91,0.00,,,-99.99,,2013-06-13 08:52:00,
2013-06-13 05:02:00,66.0,64.0,-100.00,SSE,155,4.0,11.0,91,0.00,,,-99.99,,2013-06-13 09:02:00,
2013-06-13 05:12:00,66.0,63.0,-100.00,SSE,165,4.0,11.0,91,0.00,,,-99.99,,2013-06-13 09:12:00,
2013-06-13 05:22:00,66.0,63.0,-100.00,SSE,165,4.0,11.0,91,0.00,,,-99.99,,2013-06-13 09:22:00,
2013-06-13 05:32:00,66.0,63.0,-100.00,South,170,5.0,12.0,90,0.00,,,-99.99,,2013-06-13 09:32:00,
2013-06-13 05:42:00,66.0,63.0,-100.00,South,170,4.0,9.0,90,0.00,,,-99.99,,2013-06-13 09:42:00,
2013-06-13 05:52:00,66.0,63.0,-100.00,South,190,5.0,12.0,89,0.00,,,-99.99,,2013-06-13 09:52:00,
2013-06-13 06:01:00,66.0,63.0,-100.00,SW,230,2.0,11.0,89,0.00,,,-99.99,,2013-06-13 10:01:00,
2013-06-13 06:12:00,66.0,63.0,-100.00,South,170,4.0,9.0,89,0.00,,,-99.99,,2013-06-13 10:12:00,
2013-06-13 06:22:00,66.0,63.0,-100.00,SW,230,1.0,5.0,89,0.00,,,-99.99,,2013-06-13 10:22:00,
2013-06-13 06:33:00,66.0,62.0,-100.00,West,275,4.0,12.0,85,0.00,,,-99.99,,2013-06-13 10:33:00,
2013-06-13 06:43:00,66.0,62.0,-100.00,WSW,250,5.0,19.0,85,0.00,,,-99.99,,2013-06-13 10:43:00,
2013-06-13 06:53:00,66.0,62.0,-100.00,WSW,250,5.0,19.0,85,0.00,,,-99.99,,2013-06-13 10:53:00,
2013-06-13 07:02:00,65.0,61.0,-100.00,West,270,11.0,19.0,86,0.00,,,-99.99,,2013-06-13 11:02:00,
2013-06-13 07:12:00,64.0,61.0,-100.00,WNW,285,9.0,22.0,88,0.00,,,-99.99,,2013-06-13 11:12:00,
2013-06-13 07:24:00,64.0,61.0,-100.00,West,275,10.0,21.0,90,0.00,,,-99.99,,2013-06-13 11:24:00,
2013-06-13 07:32:00,64.0,61.0,-100.00,West,270,11.0,24.0,91,0.00,,,-99.99,,2013-06-13 11:32:00,
2013-06-13 07:42:00,63.0,61.0,-100.00,WNW,290,8.0,16.0,91,0.00,,,-99.99,,2013-06-13 11:42:00,
2013-06-13 07:52:00,63.0,61.0,-100.00,WNW,290,8.0,16.0,91,0.00,,,-99.99,,2013-06-13 11:52:00,
2013-06-13 08:01:00,64.0,61.0,-100.00,West,260,7.0,16.0,92,0.00,,,-99.99,,2013-06-13 12:01:00,
2013-06-13 08:12:00,64.0,61.0,-100.00,SW,230,4.0,12.0,92,0.00,,,-99.99,,2013-06-13 12:12:00,
2013-06-13 08:22:00,64.0,62.0,-100.00,WSW,240,2.0,8.0,92,0.00,,,-99.99,,2013-06-13 12:22:00,
2013-06-13 08:35:00,62.0,60.0,-100.00,NNE,20,4.0,10.0,91,0.00,,,-99.99,,2013-06-13 12:35:00,
2013-06-13 08:43:00,62.0,60.0,-100.00,NNE,20,4.0,10.0,91,0.00,,,-99.99,,2013-06-13 12:43:00,
2013-06-13 08:52:00,60.0,58.0,-100.00,North,0,4.0,11.0,92,1.69,,,-99.99,,2013-06-13 12:52:00,
2013-06-13 09:01:00,59.0,57.0,-100.00,North,10,2.0,11.0,93,1.69,,,-99.99,,2013-06-13 13:01:00,
2013-06-13 09:11:00,59.0,57.0,-100.00,North,10,2.0,11.0,93,1.69,,,-99.99,,2013-06-13 13:11:00,
2013-06-13 09:22:00,59.0,58.0,-100.00,NE,50,2.0,17.0,93,2.83,,,-99.99,,2013-06-13 13:22:00,
2013-06-13 09:33:00,59.0,57.0,-100.00,ENE,70,2.0,13.0,93,2.83,,,-99.99,,2013-06-13 13:33:00,
2013-06-13 09:43:00,59.0,58.0,-100.00,NE,50,4.0,12.0,93,2.24,,,-99.99,,2013-06-13 13:43:00,
2013-06-13 09:53:00,59.0,58.0,-100.00,WSW,250,4.0,13.0,93,1.69,,,-99.99,,2013-06-13 13:53:00,
2013-06-13 10:02:00,59.0,58.0,-100.00,WSW,250,4.0,13.0,93,1.69,,,-99.99,,2013-06-13 14:02:00,
2013-06-13 10:11:00,59.0,57.0,-100.00,NNE,30,4.0,11.0,93,1.10,,,-99.99,,2013-06-13 14:11:00,
2013-06-13 10:22:00,59.0,58.0,-100.00,ENE,70,2.0,9.0,93,0.00,,,-99.99,,2013-06-13 14:22:00,
2013-06-13 10:33:00,59.0,58.0,-100.00,ENE,75,2.0,10.0,93,0.00,,,-99.99,,2013-06-13 14:33:00,
2013-06-13 10:43:00,60.0,58.0,-100.00,West,260,2.0,9.0,93,0.00,,,-99.99,,2013-06-13 14:43:00,
2013-06-13 10:53:00,60.0,58.0,-100.00,West,260,2.0,9.0,93,0.00,,,-99.99,,2013-06-13 14:53:00,
2013-06-13 11:02:00,60.0,58.0,-100.00,ENE,60,2.0,6.0,93,0.00,,,-99.99,,2013-06-13 15:02:00,
2013-06-13 11:12:00,60.0,58.0,-100.00,East,95,2.0,9.0,93,0.55,,,-99.99,,2013-06-13 15:12:00,
2013-06-13 11:22:00,60.0,58.0,-100.00,NE,45,2.0,9.0,93,1.10,,,-99.99,,2013-06-13 15:22:00,
2013-06-13 11:33:00,60.0,58.0,-100.00,West,270,2.0,5.0,93,0.00,,,-99.99,,2013-06-13 15:33:00,
2013-06-13 11:43:00,60.0,58.0,-100.00,West,270,2.0,5.0,93,0.00,,,-99.99,,2013-06-13 15:43:00,
2013-06-13 11:53:00,60.0,58.0,-100.00,West,275,2.0,6.0,92,0.00,,,-99.99,,2013-06-13 15:53:00,
2013-06-13 12:02:00,61.0,58.0,-100.00,SW,230,1.0,5.0,92,0.00,,,-99.99,,2013-06-13 16:02:00,
2013-06-13 12:12:00,60.0,58.0,-100.00,WSW,240,1.0,7.0,92,0.00,,,-99.99,,2013-06-13 16:12:00,
2013-06-13 12:22:00,60.0,58.0,-100.00,WSW,250,3.0,8.0,92,0.00,,,-99.99,,2013-06-13 16:22:00,
2013-06-13 12:33:00,61.0,58.0,-100.00,SE,135,1.0,6.0,92,0.00,,,-99.99,,2013-06-13 16:33:00,
2013-06-13 12:43:00,61.0,58.0,-100.00,NNE,20,1.0,7.0,92,0.00,,,-99.99,,2013-06-13 16:43:00,
2013-06-13 12:53:00,61.0,59.0,-100.00,WSW,255,2.0,6.0,92,0.00,,,-99.99,,2013-06-13 16:53:00,
2013-06-13 13:02:00,61.0,58.0,-100.00,WNW,290,2.0,6.0,91,0.00,,,-99.99,,2013-06-13 17:02:00,
2013-06-13 13:12:00,61.0,59.0,-100.00,WSW,245,1.0,6.0,91,0.00,,,-99.99,,2013-06-13 17:12:00,
2013-06-13 13:24:00,61.0,59.0,-100.00,WNW,285,3.0,8.0,90,0.55,,,-99.99,,2013-06-13 17:24:00,
2013-06-13 13:33:00,61.0,59.0,-100.00,WNW,290,3.0,11.0,90,0.00,,,-99.99,,2013-06-13 17:33:00,
2013-06-13 13:43:00,61.0,58.0,-100.00,SW,230,3.0,9.0,89,0.55,,,-99.99,,2013-06-13 17:43:00,
2013-06-13 13:53:00,61.0,58.0,-100.00,SW,230,3.0,9.0,89,0.55,,,-99.99,,2013-06-13 17:53:00,
2013-06-13 14:02:00,61.0,58.0,-100.00,West,270,3.0,11.0,90,0.00,,,-99.99,,2013-06-13 18:02:00,
2013-06-13 14:11:00,61.0,58.0,-100.00,West,270,4.0,8.0,90,0.00,,,-99.99,,2013-06-13 18:11:00,
2013-06-13 14:22:00,61.0,58.0,-100.00,WSW,255,4.0,9.0,90,0.00,,,-99.99,,2013-06-13 18:22:00,
2013-06-13 14:33:00,62.0,59.0,-100.00,SW,235,2.0,6.0,90,0.00,,,-99.99,,2013-06-13 18:33:00,
2013-06-13 14:43:00,64.0,60.0,-100.00,NW,320,1.0,6.0,88,0.00,,,-99.99,,2013-06-13 18:43:00,
2013-06-13 14:52:00,64.0,60.0,-100.00,NW,320,1.0,6.0,88,0.00,,,-99.99,,2013-06-13 18:52:00,
2013-06-13 15:01:00,64.0,61.0,-100.00,WNW,285,2.0,7.0,87,0.00,,,-99.99,,2013-06-13 19:01:00,
2013-06-13 15:11:00,65.0,61.0,-100.00,West,275,2.0,7.0,86,0.00,,,-99.99,,2013-06-13 19:11:00,
2013-06-13 15:22:00,67.0,61.0,-100.00,West,260,2.0,6.0,82,0.00,,,-99.99,,2013-06-13 19:22:00,
2013-06-13 15:33:00,66.0,61.0,-100.00,WSW,245,3.0,9.0,82,0.00,,,-99.99,,2013-06-13 19:33:00,
2013-06-13 15:43:00,67.0,61.0,-100.00,SW,235,1.0,7.0,82,0.00,,,-99.99,,2013-06-13 19:43:00,
2013-06-13 15:53:00,67.0,60.0,-100.00,ENE,65,3.0,9.0,79,0.00,,,-99.99,,2013-06-13 19:53:00,
2013-06-13 16:02:00,66.0,60.0,-100.00,West,265,6.0,11.0,80,0.00,,,-99.99,,2013-06-13 20:02:00,
2013-06-13 16:11:00,67.0,60.0,-100.00,WNW,290,4.0,9.0,78,0.00,,,-99.99,,2013-06-13 20:11:00,
2013-06-13 16:22:00,67.0,60.0,-100.00,WSW,240,2.0,8.0,77,0.00,,,-99.99,,2013-06-13 20:22:00,
2013-06-13 16:33:00,67.0,59.0,-100.00,West,260,5.0,9.0,76,0.00,,,-99.99,,2013-06-13 20:33:00,
2013-06-13 16:44:00,68.0,59.0,-100.00,West,270,2.0,10.0,72,0.00,,,-99.99,,2013-06-13 20:44:00,
2013-06-13 16:53:00,68.0,58.0,-100.00,WNW,285,5.0,11.0,71,0.00,,,-99.99,,2013-06-13 20:53:00,
2013-06-13 17:02:00,66.0,58.0,-100.00,NNE,15,3.0,11.0,77,0.00,,,-99.99,,2013-06-13 21:02:00,
2013-06-13 17:11:00,66.0,59.0,-100.00,WSW,240,2.0,9.0,77,0.00,,,-99.99,,2013-06-13 21:11:00,
2013-06-13 17:22:00,66.0,58.0,-100.00,WNW,290,4.0,8.0,74,0.00,,,-99.99,,2013-06-13 21:22:00,
2013-06-13 17:34:00,66.0,58.0,-100.00,ENE,60,2.0,10.0,74,0.00,,,-99.99,,2013-06-13 21:34:00,
2013-06-13 17:43:00,67.0,57.0,-100.00,West,260,3.0,9.0,70,0.00,,,-99.99,,2013-06-13 21:43:00,
2013-06-13 17:52:00,67.0,57.0,-100.00,NE,50,3.0,6.0,69,0.00,,,-99.99,,2013-06-13 21:52:00,
2013-06-13 18:02:00,67.0,57.0,-100.00,North,10,3.0,8.0,71,0.00,,,-99.99,,2013-06-13 22:02:00,
2013-06-13 18:11:00,65.0,57.0,-100.00,NNE,20,4.0,12.0,74,0.00,,,-99.99,,2013-06-13 22:11:00,
2013-06-13 18:22:00,64.0,57.0,-100.00,NNE,30,6.0,12.0,76,0.00,,,-99.99,,2013-06-13 22:22:00,
2013-06-13 18:33:00,64.0,57.0,-100.00,North,5,4.0,12.0,77,0.00,,,-99.99,,2013-06-13 22:33:00,
2013-06-13 18:43:00,65.0,57.0,-100.00,NE,35,2.0,8.0,76,0.00,,,-99.99,,2013-06-13 22:43:00,
2013-06-13 18:52:00,65.0,57.0,-100.00,ENE,70,4.0,12.0,75,0.00,,,-99.99,,2013-06-13 22:52:00,
2013-06-13 19:02:00,66.0,58.0,-100.00,NNE,30,2.0,7.0,74,0.00,,,-99.99,,2013-06-13 23:02:00,
2013-06-13 19:11:00,67.0,59.0,-100.00,NE,35,4.0,9.0,77,0.00,,,-99.99,,2013-06-13 23:11:00,
2013-06-13 19:22:00,65.0,59.0,-100.00,NNE,30,2.0,7.0,80,0.00,,,-99.99,,2013-06-13 23:22:00,
2013-06-13 19:32:00,65.0,60.0,-100.00,East,85,2.0,7.0,81,0.00,,,-99.99,,2013-06-13 23:32:00,
2013-06-13 19:43:00,64.0,58.0,-100.00,East,80,3.0,6.0,82,0.00,,,-99.99,,2013-06-13 23:43:00,
2013-06-13 19:52:00,64.0,58.0,-100.00,ENE,75,2.0,6.0,81,0.00,,,-99.99,,2013-06-13 23:52:00,
2013-06-13 20:01:00,64.0,58.0,-100.00,ENE,70,2.0,5.0,80,0.00,,,-99.99,,2013-06-14 00:01:00,
2013-06-13 20:12:00,64.0,58.0,-100.00,ENE,70,2.0,5.0,80,0.00,,,-99.99,,2013-06-14 00:12:00,
2013-06-13 20:22:00,64.0,58.0,-100.00,ENE,70,1.0,4.0,79,0.00,,,-99.99,,2013-06-14 00:22:00,
2013-06-13 20:34:00,63.0,58.0,-100.00,ENE,70,1.0,5.0,86,0.00,,,-99.99,,2013-06-14 00:34:00,
2013-06-13 20:43:00,62.0,58.0,-100.00,ENE,70,1.0,4.0,85,0.00,,,-99.99,,2013-06-14 00:43:00,
2013-06-13 20:53:00,62.0,58.0,-100.00,West,260,1.0,4.0,86,0.00,,,-99.99,,2013-06-14 00:53:00,
2013-06-13 21:01:00,62.0,58.0,-100.00,ENE,70,1.0,4.0,87,0.00,,,-99.99,,2013-06-14 01:01:00,
2013-06-13 21:11:00,62.0,58.0,-100.00,ENE,70,1.0,4.0,87,0.00,,,-99.99,,2013-06-14 01:11:00,
2013-06-13 21:22:00,62.0,58.0,-100.00,ENE,70,1.0,4.0,88,0.00,,,-99.99,,2013-06-14 01:22:00,
2013-06-13 21:33:00,61.0,57.0,-100.00,NE,55,1.0,4.0,86,0.00,,,-99.99,,2013-06-14 01:33:00,
2013-06-13 21:43:00,61.0,56.0,-100.00,East,80,2.0,6.0,84,0.00,,,-99.99,,2013-06-14 01:43:00,
2013-06-13 21:52:00,61.0,56.0,-100.00,East,80,2.0,6.0,84,0.00,,,-99.99,,2013-06-14 01:52:00,
2013-06-13 22:02:00,60.0,56.0,-100.00,NE,35,1.0,4.0,84,0.00,,,-99.99,,2013-06-14 02:02:00,
2013-06-13 22:11:00,60.0,55.0,-100.00,SW,225,2.0,4.0,85,0.00,,,-99.99,,2013-06-14 02:11:00,
2013-06-13 22:22:00,60.0,56.0,-100.00,West,265,0.0,6.0,86,0.00,,,-99.99,,2013-06-14 02:22:00,
2013-06-13 22:32:00,59.0,55.0,-100.00,WSW,250,1.0,4.0,87,0.00,,,-99.99,,2013-06-14 02:32:00,
2013-06-13 22:43:00,59.0,56.0,-100.00,NNE,20,1.0,3.0,88,0.00,,,-99.99,,2013-06-14 02:43:00,
2013-06-13 22:52:00,59.0,56.0,-100.00,WSW,245,2.0,5.0,89,0.00,,,-99.99,,2013-06-14 02:52:00,
2013-06-13 23:02:00,59.0,56.0,-100.00,WSW,255,2.0,4.0,90,0.00,,,-99.99,,2013-06-14 03:02:00,
2013-06-13 23:12:00,59.0,56.0,-100.00,WSW,250,1.0,4.0,90,0.00,,,-99.99,,2013-06-14 03:12:00,
2013-06-13 23:22:00,58.0,56.0,-100.00,West,260,2.0,5.0,90,0.00,,,-99.99,,2013-06-14 03:22:00,
2013-06-13 23:34:00,58.0,56.0,-100.00,North,0,0.0,4.0,91,0.00,,,-99.99,,2013-06-14 03:34:00,
2013-06-13 23:43:00,58.0,56.0,-100.00,West,265,3.0,4.0,90,0.00,,,-99.99,,2013-06-14 03:43:00,
2013-06-13 23:53:00,58.0,55.0,-100.00,SW,225,1.0,4.0,90,0.00,,,-99.99,,2013-06-14 03:53:00,